TimeEDT,TemperatureF,Dew PointF,Humidity,Sea Level PressureIn,VisibilityMPH,Wind Direction,Wind SpeedMPH,Gust SpeedMPH,PrecipitationIn,Events,Conditions,WindDirDegrees,DateUTC
12:54 AM,45.0,35.1,68,29.84,10.0,West,8.1,-,N/A,,Partly Cloudy,270,2013-10-24 04:54:00
1:54 AM,45.0,34.0,65,29.86,10.0,West,8.1,-,N/A,,Mostly Cloudy,280,2013-10-24 05:54:00
2:54 AM,45.0,33.1,63,29.88,10.0,West,6.9,-,N/A,,Overcast,260,2013-10-24 06:54:00
3:54 AM,45.0,33.1,63,29.89,10.0,WNW,10.4,-,N/A,,Overcast,290,2013-10-24 07:54:00
4:54 AM,44.1,33.1,65,29.91,10.0,West,8.1,-,N/A,,Overcast,280,2013-10-24 08:54:00
5:54 AM,44.1,32.0,63,29.94,10.0,West,9.2,-,N/A,,Scattered Clouds,280,2013-10-24 09:54:00
6:54 AM,43.0,32.0,65,29.94,10.0,WNW,11.5,-,N/A,,Partly Cloudy,290,2013-10-24 10:54:00
7:54 AM,44.1,30.9,60,29.97,10.0,WNW,13.8,-,N/A,,Partly Cloudy,290,2013-10-24 11:54:00
9:54 AM,48.0,30.9,52,29.99,10.0,West,19.6,24.2,N/A,,Partly Cloudy,280,2013-10-24 13:54:00
10:54 AM,50.0,30.0,46,29.99,10.0,West,15.0,-,N/A,,Partly Cloudy,280,2013-10-24 14:54:00
11:54 AM,52.0,28.0,40,29.98,10.0,West,19.6,25.3,N/A,,Scattered Clouds,260,2013-10-24 15:54:00
12:54 PM,52.0,26.1,37,29.97,10.0,WNW,18.4,26.5,N/A,,Scattered Clouds,300,2013-10-24 16:54:00
1:54 PM,51.1,26.1,38,29.96,10.0,WNW,23.0,31.1,N/A,,Mostly Cloudy,290,2013-10-24 17:54:00
2:54 PM,50.0,25.0,38,29.97,10.0,West,20.7,25.3,N/A,,Mostly Cloudy,270,2013-10-24 18:54:00
3:54 PM,50.0,24.1,36,29.96,10.0,WNW,12.7,21.9,N/A,,Mostly Cloudy,290,2013-10-24 19:54:00
4:54 PM,50.0,25.0,38,29.99,10.0,WNW,16.1,25.3,N/A,,Mostly Cloudy,290,2013-10-24 20:54:00
5:54 PM,50.0,25.0,38,30.01,10.0,West,16.1,23.0,N/A,,Scattered Clouds,280,2013-10-24 21:54:00
6:54 PM,48.0,25.0,41,30.03,10.0,West,11.5,-,N/A,,Scattered Clouds,270,2013-10-24 22:54:00
7:54 PM,45.0,26.1,48,30.04,10.0,West,9.2,-,N/A,,Clear,260,2013-10-24 23:54:00
8:54 PM,45.0,26.1,48,30.06,10.0,West,10.4,-,N/A,,Clear,260,2013-10-25 00:54:00
9:54 PM,43.0,27.0,53,30.07,10.0,West,8.1,-,N/A,,Clear,260,2013-10-25 01:54:00
10:54 PM,42.1,26.1,53,30.09,10.0,West,9.2,-,N/A,,Clear,260,2013-10-25 02:54:00
11:54 PM,42.1,27.0,55,30.10,10.0,West,10.4,-,N/A,,Clear,260,2013-10-25 03:54:00